DELTA 1 DEB, 10706

Orbit data source: Space-Track

DELTA 1 DEB, 10706 is space debris in SSO originally from a launch on Thu, 29 Jul 1976 UTC launched from the Air Force Western Test Range (AFWTR). Debris objects in space refer to the collection of defunct objects orbiting the Earth. Examples of debris include non-operational satellites, rocket bodies, and fragments generated from explosions, collisions, or faulty payload assembly.

Loading next visibility...
Identifier
10706, 1976-077AB
Orbit
SSO
Country
Flag of USUS
Related business
Manufacturer
Unknown
Mission
Spacecraft
Bus & Motor
Unknown
Mass
Unknown
Launch date (UTC)
1976-07-29 (50 years ago)
Launch vehicle
Unknown
Launch site
Air Force Western Test Range (AFWTR)
Object type
Payload
Rocket body
Debris
Shape & HBR
Unknown shape, 0.1 m
Radar Cross Section
Medium (>0.1 m² and <1 m²)

Expand to show TLE details & history
Last TLE update: 21 hours ago

TLE from 21 hours ago
0 DELTA 1 DEB
1 10706U 76077AB  26265.15402631  .00000195  00000-0  73816-3 0  9997
2 10706 101.5271 130.9510 0394016 302.6610 212.1176 12.83384890331916
Epoch: 2026-09-22T03:41Z
TLE epoch observation values (Epoch: 2026-09-22T03:41:47.873Z)
Latitude
26.95945°
Longitude
-99.59656°
Altitude
1,591.35 km
Speed
6.955 km/s
True Right ascension
21h 07m 30s
True Declination
26° 50' 07"
Sunlit
Object was in full shadow at epoch
Visualization orbit readout
Latitude
Unknown
Longitude
Unknown
Altitude
Unknown
Speed
Unknown
Apparent Right ascension
Unknown
Apparent Declination
Unknown
Sunlit
N/A
Visualization observer readout
Local Sidereal Time
17:48:58
Azimuth
Unknown
Elevation
Unknown
Doppler factor
Unknown
Orbital elements
Apogee altitude
1,628.905 km
Perigee altitude
1,021.844 km
Semi-major axis
7,703.512 km
Eccentricity
0.0394
Inclination
101.5271°
RAAN
130.951°
Arg. of periapsis
302.661°
True anomaly
209.814°
Mean anomaly
212.1176°
Eccentric anomaly
210.95635°
Mean motion
3.21004 °/min
Orbital period
112.15 mins
BSTAR
0.00073816
Loading maneuver chart data...
Computing Atmospheric mass density...
Loading historical data...
Loading historical data...
Loading historical data...
Loading historical data...
Loading historical data...
Loading historical data...
Loading historical data...

Documentation

Showing up to 5 results
|